Date,TemperatureHighF,TemperatureAvgF,TemperatureLowF,DewpointHighF,DewpointAvgF,DewpointLowF,HumidityHigh,HumidityAvg,HumidityLow,PressureMaxIn,PressureMinIn,WindSpeedMaxMPH,WindSpeedAvgMPH,GustSpeedMaxMPH,PrecipitationSumIn
2013-4-1,72,62,55,61,58,54,99,86,54,30.04,29.89,4,1,8,0.01
2013-4-2,80,63,49,54,49,45,96,64,30,30.13,30.00,7,1,10,0.00
2013-4-3,58,56,51,57,51,43,96,84,61,30.10,29.84,9,1,24,0.36
2013-4-4,65,58,54,62,57,53,98,96,87,29.96,29.85,3,1,7,0.02
2013-4-5,66,54,48,52,49,47,99,86,55,30.08,29.90,6,1,11,0.07
2013-4-6,77,58,42,49,45,41,98,69,31,30.16,30.06,7,1,9,0.00
2013-4-7,79,63,46,60,54,45,98,74,43,30.15,30.03,6,2,12,0.00
2013-4-8,81,68,57,60,58,56,98,73,45,30.10,30.02,8,2,13,0.00
2013-4-9,86,73,60,62,59,57,92,65,42,30.12,30.00,14,2,14,0.00
2013-4-10,86,72,59,64,60,57,93,67,41,30.07,29.90,13,3,14,0.00
2013-4-11,79,69,61,73,67,57,98,92,78,29.91,29.60,14,3,19,2.35
2013-4-12,72,61,51,64,51,45,97,72,40,29.96,29.74,6,2,14,0.00
2013-4-13,81,63,45,53,46,41,97,62,25,30.04,29.93,4,0,8,0.00
2013-4-14,61,58,56,60,56,50,99,92,66,30.00,29.67,16,2,19,2.38
2013-4-15,86,70,58,72,65,58,99,85,59,30.06,29.86,5,1,8,0.00
2013-4-16,87,74,65,73,68,64,97,82,59,30.14,30.05,6,2,12,0.00
2013-4-17,83,74,66,71,68,64,98,84,65,30.16,30.03,7,2,10,0.00
2013-4-18,84,73,63,70,66,62,96,82,58,30.03,29.88,11,3,15,0.00
2013-4-19,73,58,45,71,56,45,99,94,87,30.12,29.81,10,2,16,0.41
2013-4-20,68,52,37,46,42,37,99,72,36,30.24,30.12,8,1,10,0.01
2013-4-21,75,58,42,51,44,39,90,65,37,30.22,30.12,7,1,12,0.00
2013-4-22,70,60,52,60,54,45,97,79,68,30.18,30.08,7,1,12,0.00
2013-4-23,77,65,55,63,58,54,97,79,54,30.14,30.03,8,2,13,0.00
2013-4-24,78,66,56,70,63,55,99,91,65,30.15,30.04,6,1,9,0.03
2013-4-25,76,63,52,61,53,41,97,73,29,30.27,30.13,5,1,10,0.00
2013-4-26,85,64,46,50,44,40,81,52,23,30.31,30.20,6,1,10,0.00
2013-4-27,84,67,52,66,60,50,96,78,49,30.23,30.06,9,2,14,0.00
2013-4-28,81,71,64,69,65,61,99,82,51,30.11,29.95,8,1,10,0.00
2013-4-29,84,70,62,66,62,59,97,80,45,30.00,29.89,5,1,10,0.00
2013-4-30,82,71,61,67,65,60,99,83,57,29.99,29.91,7,2,10,0.00